Weather in Pinczow

Poland     50°31′15″N   20°31′54″E
temp.,
°C
wind,
m/s
gust,
m/s
humid.,
%
clouds,
%
prec.,
mm/h
press.,
hPa
HPBL,
m
26 february, fri
fri2601:00+8wsw49820 0.0 1029181
04:00+6w34880 0.0 102759
07:00+6w23880 0.0 102734
10:00+11w24720 0.0 1026291
13:00+14wnw466128 0.0 1024800
16:00+12nw587170 0.0 1023683
19:00+8nnw7108485 0.3 1025725
22:00+5nw61182100 1.1 1026810
27 february, sat
sat2701:00+5wnw51184100 1.1 1028682
04:00+3wnw5119264 0.0 1027535
07:00+3wnw7128881 0.1 1028720
10:00+3wnw71183100 0.0 1028812
13:00+4nw71077100 0.1 10301122
16:00+4nw71075100 0.1 1030950
19:00+4nw51177100 0.1 1032618
22:00+3nw5118296 0.0 1033493
28 february, sun
sun2801:00+1nw4109450 0.0 1033276
04:000nw49940 0.0 1033260
07:00−1wnw37940 0.0 1034267
10:00+3nw576833 0.0 1034611
13:00+6nw565925 0.0 10341024
16:00+6nw47620 0.0 1032903
19:00+2wnw35750 0.0 1033113
22:00+2wnw49800 0.0 1033213
1 march, mon
mon101:00+2nw498727 0.0 1034302
04:00+2nnw379694 0.0 1034243
07:00+2nnw359697 0.0 1035329
10:00+2nnw3490100 0.0 1036337
13:00+5nw3478100 0.0 1036509
16:00+7nnw357132 0.0 1035715
19:00+4nnw228616 0.0 103622
22:00+3nnw12890 0.0 103722
2 march, tue
tue201:00+2nw12890 0.0 103822
04:00+1nnw00890 0.0 103722
07:00+2wsw11900 0.0 103822
10:00+7s00710 0.0 1038249
13:00+10s22580 0.0 1037503
16:00+10s22610 0.0 1035129
19:00+6ssw12750 0.0 103522
22:00+5sw12800 0.0 103622